Theta_e
305 309 308 309 310 311 310 308 309 310 311 311 312 312 312 310 313 312 306 309 309 309 311 312 313 314 314 313 315 315 316 316 316 316 316 315 314 313 312 311 311 310 307 309 307 308 309 310 310 309 307 305 306 305 303 304 303 304 304 303 302 300 299 297 296 296 290 285 287 290 289 288 284 285 283 282 283 285 284 282 283 283 281 282 284
304 306 304 304 304 304 304 304 308 307 311 309 309 310 309 309 307 302 305 308 304 308 307 310 310 312 313 313 312 313 314 316 314 312 313 314 314 311 308 307 307 307 306 307 308 307 307 308 308 307 304 305 305 302 302 300 300 301 300 300 301 300 296 297 296 297 297 286 285 285 286 286 287 284 284 282 283 283 282 281 280 280 281 281 280
296 296 297 298 300 301 302 303 303 304 307 306 305 304 302 299 298 301 301 300 296 301 304 304 306 306 307 307 309 307 310 308 305 306 307 308 309 306 305 306 307 306 305 306 307 307 306 305 306 306 301 300 301 301 299 300 299 300 299 296 298 298 294 295 296 293 294 291 286 285 285 285 286 285 283 283 283 282 281 280 280 281 281 279 280
292 293 293 296 297 296 299 297 298 299 302 300 300 298 297 297 295 297 298 296 297 296 298 301 301 301 303 302 302 303 303 302 303 302 305 304 303 304 303 303 304 305 306 307 306 305 305 304 304 304 300 300 300 298 296 295 295 295 295 294 296 296 293 292 294 296 293 292 285 286 286 284 285 283 283 281 281 281 281 279 280 279 279 280 279
295 295 294 294 292 295 292 292 296 296 298 297 298 296 295 295 295 297 296 298 299 297 296 296 299 300 301 302 303 300 300 301 302 301 300 299 300 301 301 301 301 302 303 304 301 304 304 303 305 302 298 298 297 295 294 294 294 294 294 293 292 293 291 291 290 290 290 289 288 284 284 284 282 282 282 281 280 279 279 278 278 279 279 279 280
292 291 292 295 294 294 290 290 294 295 295 295 295 294 293 294 294 294 297 301 295 296 297 296 298 298 297 298 298 298 298 297 298 299 300 298 297 298 298 298 299 301 301 302 302 301 302 302 301 298 296 296 297 296 293 294 293 292 292 291 290 290 290 289 289 288 287 288 287 284 282 283 282 281 280 280 280 279 278 277 278 278 279 279 279
289 292 290 295 293 294 292 291 290 292 293 294 292 292 293 292 294 295 292 295 295 295 293 294 293 295 294 294 296 296 297 296 296 296 296 296 297 296 296 295 296 296 296 297 297 297 298 298 296 294 296 296 297 296 294 292 292 291 291 290 290 289 289 289 288 287 287 286 285 284 283 283 282 281 279 279 279 278 278 278 278 279 279 279 279
289 292 291 292 292 292 290 292 292 292 293 293 294 293 293 292 293 291 289 294 293 294 294 294 291 291 293 294 294 293 294 294 294 294 294 294 295 294 294 295 294 293 293 293 292 293 293 294 294 294 294 295 294 294 292 293 290 290 289 289 288 288 288 289 287 287 286 285 284 283 282 282 280 277 277 278 278 278 279 280 280 279 279 279 279
293 294 291 293 293 293 292 293 294 294 294 295 294 294 293 292 290 290 291 291 292 291 292 293 291 291 290 291 291 291 293 293 293 292 292 293 293 295 294 293 292 292 291 291 290 291 291 291 291 292 291 290 291 292 292 293 292 291 291 288 288 288 288 288 287 286 285 284 283 282 281 281 280 277 277 278 279 281 280 280 280 280 279 278 279
295 295 294 295 294 293 294 294 295 294 294 294 293 291 291 290 290 290 291 290 290 289 290 291 291 291 291 290 289 290 291 293 291 292 293 293 293 293 293 291 290 290 290 290 290 290 290 290 289 287 287 287 288 289 290 291 291 292 292 289 288 288 287 287 286 285 285 284 283 282 280 279 278 278 278 279 279 278 278 280 279 278 277 277 278
296 296 296 295 294 294 295 295 294 294 294 292 291 291 291 290 290 290 289 289 290 289 290 291 290 289 291 291 290 289 290 292 291 294 294 294 292 292 292 291 291 290 290 290 289 289 289 289 288 287 287 287 288 288 289 290 290 290 290 289 289 289 288 287 286 285 284 283 283 280 279 279 278 278 279 279 279 280 280 279 279 277 277 277 277
297 297 296 295 295 295 295 294 293 292 291 292 291 290 289 289 290 290 289 289 289 288 290 290 289 288 289 288 289 288 288 289 292 293 294 294 293 291 291 290 290 289 289 289 288 289 289 288 287 286 287 287 287 287 287 288 289 289 289 289 289 289 290 289 288 284 282 281 279 279 277 278 278 278 279 279 279 279 279 279 279 278 277 276 277
297 297 296 295 295 295 294 293 292 291 291 291 290 289 289 289 289 289 289 289 287 289 289 288 288 288 289 289 288 287 288 290 292 293 293 293 294 292 289 289 289 288 288 288 288 288 288 287 287 286 286 285 286 286 286 286 287 287 288 288 288 289 290 290 289 285 283 281 279 277 277 277 277 278 279 280 281 279 279 278 278 278 278 277 277
296 296 295 295 295 295 293 292 292 292 291 290 289 289 289 290 289 289 289 287 288 288 288 288 288 288 288 288 288 288 288 289 291 292 292 292 293 292 288 288 288 288 288 288 288 287 287 287 287 287 285 284 285 285 285 285 285 285 285 285 285 285 287 288 288 286 282 279 278 278 277 278 278 278 280 283 281 280 279 279 279 278 277 277 277
295 295 295 295 294 293 293 292 291 291 291 289 289 289 289 290 289 288 288 289 289 289 288 289 288 287 287 287 288 288 288 289 291 291 292 293 293 291 287 286 286 286 287 286 286 286 286 286 286 286 285 284 284 284 284 284 284 284 284 284 284 283 282 282 281 280 280 279 278 278 277 278 279 279 280 282 282 282 281 280 280 279 277 276 275
295 294 294 294 293 293 293 292 291 291 290 289 289 289 289 290 289 288 288 288 288 288 287 288 287 287 287 287 288 288 287 289 290 291 292 292 293 287 286 286 286 286 286 285 285 285 285 285 285 285 284 284 285 286 286 284 284 284 283 283 283 282 281 282 284 285 282 280 279 279 278 279 284 280 280 281 281 280 278 277 277 275 275 274 275
293 293 293 293 293 293 293 292 291 291 290 289 289 289 289 289 289 288 288 287 287 287 287 286 286 286 286 287 287 287 286 288 289 290 291 292 290 286 286 286 286 285 285 285 285 284 284 283 283 282 282 282 285 286 287 286 284 283 282 282 282 281 280 280 283 286 286 286 286 286 286 286 286 286 286 286 283 280 278 276 276 275 275 274 275
293 293 293 293 293 293 293 292 291 290 290 289 289 289 289 288 288 288 289 288 287 287 287 286 286 286 286 286 287 286 286 286 288 290 290 291 288 286 286 286 285 285 284 283 282 282 282 283 283 282 282 283 285 286 287 286 283 283 283 281 280 279 279 278 280 281 285 285 285 285 285 285 286 287 287 287 286 282 279 278 278 275 275 276 275
291 292 293 293 293 293 292 292 291 290 290 290 290 289 289 288 288 287 288 288 287 287 286 286 286 286 286 286 285 286 286 286 288 289 290 291 287 285 285 285 284 283 281 280 278 278 278 280 282 282 281 282 286 287 287 286 283 282 282 280 279 279 281 280 280 280 281 280 280 281 281 283 283 283 283 287 286 283 281 280 278 276 276 276 275
292 292 291 292 292 292 292 291 291 290 290 289 289 289 288 288 287 287 287 287 287 286 286 286 286 285 285 285 285 286 286 285 285 288 289 290 289 285 284 283 282 280 277 276 276 276 276 277 280 284 286 286 287 287 287 288 284 283 281 279 278 279 280 278 279 280 279 279 279 279 279 280 280 281 281 282 284 282 280 279 278 277 276 276 274
289 290 290 291 291 291 291 291 290 290 290 289 289 288 288 288 287 287 286 286 286 286 286 286 286 285 285 285 285 285 285 285 285 287 289 290 290 287 284 283 283 281 277 276 275 275 276 276 277 282 285 286 286 287 287 287 287 284 282 282 282 282 282 278 277 281 278 276 276 277 276 276 276 277 278 279 280 280 280 280 278 276 275 275 274
288 289 290 290 291 291 290 290 290 290 289 288 288 288 287 287 287 287 287 286 286 286 285 285 285 285 285 285 285 285 285 285 285 286 288 289 290 289 285 285 284 283 280 275 274 274 275 276 275 280 284 285 285 286 287 287 288 284 282 285 285 285 279 275 273 274 274 274 273 273 273 274 274 275 276 277 277 277 277 277 278 277 277 277 275
288 289 289 289 289 289 289 289 289 289 288 288 288 287 287 286 286 287 286 286 286 285 285 285 285 285 285 285 285 284 284 285 285 284 286 288 289 290 289 286 288 283 279 276 274 275 274 274 275 281 283 284 285 286 287 287 287 284 287 287 287 286 283 272 273 272 272 272 272 272 272 274 274 275 275 275 275 274 276 277 277 277 277 277 277
288 288 288 289 289 289 289 289 289 289 288 288 288 287 286 286 286 287 286 286 286 285 285 285 285 284 284 284 284 284 284 284 284 284 284 287 288 288 289 289 289 280 277 277 274 275 274 275 275 282 283 284 285 285 286 287 282 286 287 287 287 286 276 273 272 271 272 271 271 271 272 273 273 273 274 275 275 275 275 274 275 275 275 275 275
287 288 288 288 288 288 288 288 288 288 288 288 288 288 286 286 286 286 286 286 286 286 285 285 285 285 284 284 283 283 282 281 281 281 284 284 286 287 288 288 289 288 278 274 275 274 280 283 284 284 284 284 284 285 284 284 285 286 286 287 284 278 274 272 272 271 271 271 271 272 272 273 273 274 273 273 273 272 272 272 274 274 274 275 274
287 287 287 288 288 288 288 288 288 288 288 288 288 288 287 286 287 286 286 286 286 286 285 285 285 285 284 283 283 281 279 278 277 276 278 280 282 284 285 285 284 284 281 276 281 283 284 284 284 284 283 282 277 275 275 276 282 283 283 282 275 276 275 274 273 272 273 272 272 273 273 273 273 272 273 272 271 270 270 271 272 272 273 272 271
287 287 287 288 287 287 288 288 288 288 288 288 288 288 287 287 287 286 286 286 286 286 286 285 285 285 284 283 281 277 277 273 272 271 269 270 271 273 275 275 279 280 275 274 276 273 277 278 278 282 282 283 281 281 280 278 276 276 273 274 274 274 275 276 277 277 276 275 275 276 276 275 273 273 272 271 271 271 271 272 272 272 272 271 271
287 287 287 288 288 288 288 286 287 288 288 288 288 287 287 287 287 287 286 287 287 286 286 285 285 285 285 283 278 273 272 270 269 271 271 269 270 269 270 272 270 270 272 271 270 272 272 277 275 271 271 272 273 271 270 270 272 273 272 271 271 273 277 280 280 278 278 278 278 277 276 274 273 273 271 271 272 272 272 271 271 270 271 269 268
287 287 287 288 288 288 288 288 288 288 287 287 287 288 287 287 287 287 286 287 287 287 286 285 284 284 285 281 277 274 271 271 274 276 273 278 273 269 268 269 267 267 274 279 271 270 270 269 269 270 268 270 270 269 269 269 271 270 269 271 270 270 271 275 277 278 278 278 277 277 276 275 274 273 273 272 272 272 271 271 271 271 270 269 268
287 287 287 288 288 288 288 287 288 287 287 287 285 284 283 286 287 286 282 283 285 286 286 284 283 280 278 273 273 273 274 274 281 283 284 284 284 283 281 281 281 274 280 284 276 267 267 266 266 267 268 267 268 269 269 268 269 269 269 274 271 270 271 272 274 276 277 277 277 276 276 275 274 274 273 272 272 272 271 272 270 270 269 268 268
287 287 287 287 287 287 287 287 287 287 287 286 285 283 281 282 284 285 284 283 284 284 285 284 284 281 277 272 274 281 281 283 284 284 283 285 286 286 285 285 285 285 284 275 271 270 269 268 267 265 267 266 268 268 268 268 269 268 269 268 269 270 271 270 271 273 274 274 275 275 275 274 273 273 272 272 272 271 270 271 271 270 269 269 268
287 287 287 287 286 286 287 287 286 286 285 285 284 283 282 281 280 283 283 283 284 283 283 283 282 281 281 278 273 271 280 283 283 283 283 284 284 284 285 285 285 285 285 282 273 270 269 269 268 268 267 268 270 270 269 269 269 269 268 268 270 270 269 270 271 270 271 272 273 273 273 273 273 273 273 272 272 271 271 270 270 269 269 269 269
286 286 286 285 285 285 285 285 285 285 284 283 283 283 282 281 279 278 280 283 284 284 283 283 283 283 283 282 281 280 281 283 284 284 284 284 284 284 284 284 284 285 284 275 274 274 272 271 271 271 270 271 271 271 271 270 270 269 268 268 269 269 270 271 271 272 272 273 273 273 273 273 273 273 272 272 271 270 271 270 269 269 269 268 268
285 286 285 285 285 285 285 285 285 285 284 284 283 283 281 281 279 278 277 276 276 279 282 284 284 284 284 284 283 283 283 283 283 283 283 283 284 284 283 280 284 283 278 269 270 270 270 270 271 270 269 270 271 271 271 270 269 269 269 269 270 271 272 273 271 272 273 273 273 273 273 273 272 271 271 271 271 270 270 269 269 268 268 269 268
282 281 279 281 284 284 284 284 284 284 283 282 281 280 279 277 277 276 276 275 275 274 273 274 279 281 280 281 283 283 283 283 283 283 283 283 283 282 280 274 272 270 271 270 270 268 270 270 270 271 271 271 272 272 272 270 269 270 271 272 272 273 273 273 273 273 273 272 272 272 272 272 272 272 271 270 270 270 270 269 269 269 269 268 269
282 281 280 280 282 282 282 282 282 282 281 280 279 278 276 275 275 275 274 273 273 272 270 269 270 276 278 280 282 282 282 281 281 281 281 281 281 279 271 270 270 270 269 268 269 270 270 271 271 272 272 272 272 271 271 272 273 273 274 274 274 275 274 274 274 274 274 273 273 273 273 272 272 271 271 271 270 270 270 270 270 270 270 269 269
280 280 280 280 280 280 280 279 279 279 278 276 276 275 274 274 273 273 273 272 271 270 270 269 270 271 272 271 275 279 280 280 279 279 278 278 277 273 270 270 269 269 269 268 269 270 269 268 269 270 272 272 273 273 274 275 275 275 276 276 276 276 275 275 275 274 274 273 273 273 272 272 271 271 271 270 270 270 270 270 269 269 269 269 270
278 279 279 278 278 277 277 277 276 276 275 275 274 274 273 273 273 273 272 271 271 270 270 269 271 270 270 268 272 271 273 275 274 273 273 273 270 268 269 269 269 268 268 267 268 267 267 266 267 268 269 269 269 269 269 270 270 270 271 271 272 272 274 274 273 272 271 271 270 271 271 271 271 271 270 270 270 269 269 269 269 269 269 269 269
272 275 275 275 276 277 276 275 275 275 274 273 273 273 273 273 272 272 272 271 271 270 269 268 268 268 267 266 267 269 270 267 267 266 266 266 266 266 267 267 267 267 267 266 266 266 265 265 266 266 265 265 266 265 265 265 265 265 266 266 267 267 269 269 270 271 271 271 271 272 271 271 271 271 271 270 269 269 269 269 269 269 268 268 268
272 273 274 275 274 274 274 273 273 273 273 273 273 273 272 272 272 271 271 270 269 268 268 268 268 266 266 266 266 267 267 266 265 264 265 266 266 266 266 265 265 265 265 265 264 264 263 263 263 262 262 262 263 263 263 263 263 264 265 266 267 268 270 270 270 270 270 270 271 271 271 271 271 271 270 270 269 269 269 269 269 269 269 268 268
272 272 272 274 273 273 272 272 272 272 271 271 271 271 271 270 269 269 269 268 268 267 267 266 266 266 268 271 271 269 267 266 265 265 265 265 265 265 265 264 264 264 264 264 263 263 262 261 260 260 260 261 261 261 261 261 262 263 264 266 265 266 265 265 265 265 265 266 267 268 269 270 270 269 269 269 270 270 270 269 269 269 268 268 268
272 272 272 271 272 271 271 270 270 270 270 270 270 270 269 269 268 268 268 267 267 266 266 265 265 266 270 271 270 269 266 265 265 265 265 265 265 264 264 263 263 263 262 262 262 262 262 261 260 260 259 260 259 260 260 259 260 260 261 261 261 261 261 261 261 261 262 263 265 267 267 268 268 268 269 270 269 269 269 269 268 268 268 267 267
270 270 270 270 270 270 269 268 268 269 269 269 268 268 269 268 268 268 267 267 266 266 265 265 265 266 268 269 268 267 265 265 265 265 264 264 264 263 263 262 262 262 262 262 262 261 261 260 260 259 260 259 259 259 259 258 258 258 258 258 259 259 259 259 259 260 261 262 263 263 263 264 265 266 267 268 268 268 268 268 267 267 267 267 267
269 268 268 268 268 268 268 268 268 268 268 268 268 268 267 267 267 266 266 266 265 265 265 265 265 264 264 265 265 265 264 264 264 264 264 263 263 262 262 262 262 262 262 261 261 261 260 259 259 259 259 259 259 258 258 258 258 257 257 257 259 261 261 260 260 260 260 261 261 262 262 264 264 265 266 267 267 267 267 267 267 267 267 266 266
268 268 268 267 267 266 266 266 267 267 267 267 267 267 267 266 266 266 266 265 266 265 265 265 265 264 264 264 264 263 263 263 263 263 262 262 262 261 261 261 261 261 261 261 261 260 260 259 259 259 259 259 259 258 258 258 257 256 256 256 256 258 258 259 259 260 261 261 261 261 261 262 263 264 264 265 266 266 266 266 266 266 266 266 266
267 267 267 267 266 266 266 266 267 267 267 267 267 266 266 266 266 265 265 265 265 264 264 264 264 263 263 263 263 262 262 262 262 262 262 262 261 261 261 261 261 261 260 260 260 259 260 259 259 258 259 258 258 258 258 257 257 256 256 255 256 256 256 256 256 257 259 260 260 260 261 261 262 263 264 264 265 265 265 265 265 265 265 265 265
267 267 267 266 266 266 266 266 266 266 266 266 266 266 265 265 265 265 265 264 264 263 263 263 262 262 262 262 262 262 262 261 261 261 261 261 261 261 260 260 260 260 260 260 259 259 259 259 258 258 258 258 258 258 257 256 255 255 255 255 254 256 255 256 257 258 259 260 261 261 261 261 261 262 263 263 263 264 264 265 265 264 263 263 263
267 267 267 266 266 266 266 266 266 266 265 265 265 265 264 264 263 263 263 263 262 262 262 262 261 261 261 261 261 261 261 261 261 261 261 261 260 260 260 259 260 259 259 259 259 259 258 258 257 257 257 257 257 257 256 256 255 254 253 254 254 255 258 260 260 261 262 262 262 262 262 261 261 262 262 262 262 263 263 263 264 264 263 263 263
267 267 266 266 266 265 265 265 265 264 264 264 263 263 263 262 262 262 262 262 261 261 261 260 260 261 260 261 261 260 261 260 260 260 260 260 259 259 259 259 259 258 258 258 258 258 257 257 257 257 256 256 256 255 255 255 255 254 253 253 257 260 261 263 262 262 262 262 261 261 261 261 261 262 262 262 262 262 263 263 263 263 262 261 261
266 266 265 265 264 264 264 264 264 263 263 263 262 262 262 261 261 261 261 260 260 260 260 260 260 260 260 260 260 260 260 259 259 259 259 259 259 258 258 258 257 258 257 257 257 257 256 256 256 255 256 255 255 255 254 253 252 254 253 256 260 262 262 262 262 262 262 261 261 261 262 261 261 261 261 261 261 262 262 262 262 262 262 261 260
264 264 263 263 263 263 263 263 262 262 262 262 262 261 261 261 260 260 260 260 260 259 259 259 259 259 259 259 259 259 259 259 259 259 259 258 258 258 258 257 258 257 257 257 256 256 256 256 255 255 254 255 254 255 253 253 252 255 257 261 262 262 262 262 262 262 263 262 261 260 260 261 261 260 261 261 261 261 261 261 259 259 259 259 259
Wind_Speed
8 9 8 9 9 10 9 7 7 5 6 7 8 7 6 7 7 7 4 5 5 6 6 7 7 7 7 7 7 7 7 7 6 6 7 7 6 6 6 6 6 6 4 6 5 5 7 8 8 7 5 5 6 7 7 8 8 8 7 6 8 7 9 9 11 13 5 3 4 6 7 8 8 10 9 7 6 7 6 5 6 5 5 5 4
10 9 7 7 8 7 6 4 5 5 7 6 7 7 6 6 5 3 5 6 4 6 6 6 6 6 6 6 6 6 6 6 6 6 7 8 8 6 5 6 6 6 5 6 7 7 7 8 8 7 7 9 8 8 8 7 8 8 7 8 10 10 9 9 10 9 11 0 5 1 3 6 8 6 11 11 9 6 7 5 3 4 5 4 4
5 4 5 6 6 5 4 5 5 6 6 6 6 6 5 4 4 5 5 4 3 5 5 5 5 4 4 5 5 4 5 4 4 4 4 4 5 4 4 4 6 5 5 6 7 7 6 7 8 7 4 6 8 8 7 9 8 9 10 8 10 10 8 10 8 9 10 9 4 4 5 6 9 8 9 6 6 6 6 5 5 3 2 3 4
5 5 5 5 5 5 6 5 5 5 6 5 5 4 5 4 4 4 5 4 4 3 3 3 4 4 4 4 3 4 4 3 2 2 3 2 3 3 3 3 4 4 5 6 6 5 7 6 8 7 6 8 8 7 6 5 5 7 7 7 9 8 7 6 9 10 9 10 4 8 5 6 7 0 4 3 5 5 4 3 1 3 3 3 4
4 5 5 6 5 6 5 5 6 6 5 5 5 5 4 4 4 4 3 3 2 2 2 2 3 3 3 3 3 3 3 2 2 3 3 3 3 3 3 3 4 4 5 5 5 6 6 7 8 6 6 8 7 6 6 8 8 7 8 6 7 6 4 7 9 7 6 7 4 2 1 3 1 2 6 8 4 4 1 4 3 4 4 3 3
4 5 5 6 6 6 5 5 6 6 5 5 5 4 4 4 3 2 3 3 2 2 3 1 2 2 2 2 2 2 2 2 3 3 4 3 3 2 3 3 4 4 4 4 5 5 6 6 6 5 5 6 7 6 4 7 5 5 6 6 6 6 7 7 6 5 6 7 5 3 3 6 4 2 5 5 7 5 2 2 2 3 4 4 4
5 5 5 5 6 6 6 6 5 6 5 5 4 4 4 3 3 3 2 3 4 3 3 3 1 2 3 3 2 2 2 2 3 3 2 1 1 3 3 3 3 3 4 4 4 4 4 5 5 3 5 6 7 6 5 4 4 6 5 3 1 2 4 4 2 5 6 7 4 3 4 4 4 5 2 2 2 4 7 4 6 5 4 5 5
5 5 5 5 6 6 5 4 5 5 5 5 5 4 4 3 3 2 3 3 4 4 4 4 3 3 3 3 3 3 2 2 2 2 2 2 2 2 2 2 3 3 4 4 3 4 4 4 4 4 4 4 4 4 3 5 4 5 4 3 3 3 4 4 4 5 4 4 6 5 3 5 1 2 3 3 3 4 7 7 10 7 7 4 5
6 6 5 6 6 5 5 4 4 5 5 5 5 4 4 3 3 3 4 4 4 3 3 4 3 3 1 2 2 2 3 3 3 3 2 2 2 2 2 2 3 3 3 3 3 3 3 3 3 4 4 6 6 5 4 4 4 5 5 3 3 3 3 4 4 2 3 4 6 1 3 5 6 5 5 7 11 12 4 5 6 3 3 4 3
7 7 7 6 5 5 5 5 6 5 5 5 5 4 3 4 4 4 4 4 4 3 3 2 3 4 4 2 2 3 3 3 3 3 3 2 1 2 2 3 3 2 2 2 3 2 2 2 2 5 6 5 4 5 4 4 5 4 1 5 5 5 4 4 4 5 5 6 7 5 6 7 7 8 8 8 3 2 3 6 8 3 1 3 4
7 7 7 6 5 5 6 6 6 6 5 4 4 4 5 4 4 4 4 4 4 4 4 5 4 4 4 4 4 3 3 3 3 3 3 4 3 2 2 2 1 1 2 2 3 2 1 0 1 1 1 2 1 3 5 6 7 7 5 6 7 7 6 6 7 5 6 7 5 5 7 7 6 6 8 4 4 6 5 4 5 3 5 4 8
8 8 6 6 6 7 7 6 6 5 5 6 6 6 5 5 5 5 5 5 4 4 5 5 4 4 4 3 3 3 2 2 1 1 1 1 2 1 1 1 2 2 2 2 3 2 1 1 1 1 1 2 2 2 3 4 5 7 7 8 8 10 9 7 6 5 5 6 6 8 5 8 5 5 6 4 6 4 4 4 5 6 6 6 3
8 8 7 7 7 7 7 7 6 6 6 6 6 5 6 6 6 6 6 5 3 5 4 4 4 3 4 4 4 2 1 1 2 2 2 2 2 3 1 1 1 2 2 2 1 1 2 2 2 1 2 2 2 2 2 4 4 6 7 8 9 8 7 5 5 5 5 7 7 7 8 5 5 6 5 4 4 6 5 6 6 5 5 5 7
9 8 7 8 8 8 7 8 8 7 6 6 6 6 7 8 6 5 4 4 5 5 4 5 4 4 3 3 4 2 1 1 1 1 1 1 2 4 1 1 1 0 1 1 1 1 1 1 2 4 2 1 2 3 2 3 3 3 3 4 4 4 6 7 8 6 6 7 7 8 5 4 6 3 4 6 6 7 7 8 5 6 7 8 1
8 8 9 8 8 8 8 8 8 7 7 6 7 7 7 6 6 6 5 6 6 6 5 5 4 3 3 3 4 3 2 1 1 1 2 3 3 5 3 2 1 1 0 0 0 0 0 1 2 3 2 2 2 2 2 2 2 2 3 3 4 3 3 3 3 4 3 3 5 6 4 3 4 4 3 4 8 4 4 4 6 5 2 1 1
9 8 9 10 10 9 9 9 8 8 8 8 8 8 8 8 7 5 4 4 3 3 2 2 3 3 3 3 3 3 1 2 2 1 3 3 6 5 3 2 2 1 0 0 0 0 0 1 2 3 3 3 2 4 4 2 2 3 4 4 4 3 3 1 2 3 3 4 4 4 3 2 3 3 3 4 3 4 4 4 4 3 3 3 7
11 12 12 11 11 11 11 10 10 10 10 9 9 9 9 8 6 5 5 5 4 4 3 2 2 3 3 3 3 2 1 1 2 2 2 4 5 4 3 3 2 1 1 0 0 1 1 2 2 3 3 3 3 4 5 3 2 3 4 4 4 4 4 0 2 2 3 4 3 3 4 4 5 5 7 9 8 6 5 3 5 5 5 7 7
12 12 13 12 11 11 11 11 11 11 10 11 11 8 7 4 5 5 6 6 4 3 3 3 2 3 4 3 3 3 1 0 1 1 2 4 5 4 4 3 2 1 1 0 0 0 1 3 3 2 3 3 3 4 5 3 3 3 3 4 5 6 4 1 1 1 2 2 3 3 4 5 6 8 9 11 12 10 8 10 6 7 8 7 9
12 14 14 11 11 11 11 11 10 10 11 11 9 9 8 7 4 5 4 4 5 4 4 4 3 2 3 3 4 4 2 1 0 1 2 4 4 3 4 3 1 0 0 1 1 1 2 2 2 3 4 4 5 5 5 4 3 2 2 2 4 6 5 1 2 2 3 2 2 1 2 3 3 3 4 10 13 11 8 5 4 8 9 8 7
16 10 7 9 10 10 10 11 11 11 11 9 8 7 5 5 6 6 5 4 5 4 4 4 5 3 3 3 3 3 3 2 1 2 1 2 5 4 3 3 1 1 1 1 3 3 2 2 2 4 6 7 7 6 6 6 4 2 2 3 4 8 1 1 2 3 2 3 4 2 3 2 2 1 2 3 4 4 5 3 1 2 4 5 4
6 9 9 9 11 12 11 12 13 11 9 8 6 5 6 6 6 6 6 5 4 4 5 4 4 3 3 2 2 2 2 1 1 1 0 2 4 5 3 2 2 1 1 1 1 1 3 3 2 3 5 6 7 7 6 7 6 3 3 5 5 2 0 1 1 2 2 2 3 3 3 2 2 2 3 3 3 2 2 3 1 2 3 5 5
8 8 11 11 11 11 11 10 9 9 7 7 8 6 5 5 6 6 5 6 6 6 5 4 4 3 2 2 1 1 1 2 0 1 1 0 2 5 4 3 3 3 1 0 0 1 2 2 3 3 5 5 6 7 7 7 8 4 5 8 8 7 3 0 0 1 1 2 2 2 3 4 5 4 4 4 4 3 2 2 2 3 4 3 4
8 8 9 10 10 11 10 11 10 8 9 8 8 7 6 6 7 7 7 7 7 7 5 5 4 4 3 1 1 1 1 1 2 1 0 1 1 3 5 4 5 4 3 2 2 3 1 2 3 4 5 5 6 6 6 7 5 4 7 8 8 8 3 1 2 1 1 1 1 4 4 4 4 5 4 5 3 3 4 3 3 3 3 4 5
7 8 8 8 8 8 9 9 9 8 9 8 8 8 8 7 7 6 7 7 7 7 5 5 5 5 5 3 2 1 1 2 1 2 2 2 2 3 3 4 5 4 4 3 2 2 2 2 2 4 4 5 5 5 6 5 3 6 7 8 7 6 2 2 1 1 2 2 3 5 5 4 3 4 4 4 3 3 4 3 4 5 6 6 5
9 8 9 8 8 7 7 8 9 9 9 10 10 10 9 9 8 7 7 7 7 7 6 6 6 5 5 5 4 3 2 1 2 1 2 2 2 3 4 4 3 6 4 2 2 2 3 3 3 3 3 4 5 5 4 4 6 7 8 7 6 1 1 2 2 1 2 4 5 5 5 4 4 5 3 2 1 1 2 3 3 4 5 6 5
9 10 8 8 9 9 10 9 9 9 10 9 9 8 10 9 8 7 7 7 7 7 7 7 6 6 6 5 5 5 3 3 3 1 0 2 3 4 5 5 5 5 4 2 4 3 2 1 1 2 2 3 2 2 3 2 5 6 7 6 4 1 1 1 1 1 4 5 5 6 5 4 4 3 1 1 1 5 3 3 3 5 4 5 5
9 9 10 9 9 10 12 10 10 9 10 8 7 7 8 8 7 8 7 7 7 7 8 8 6 6 7 6 6 5 4 3 3 1 1 2 2 1 3 3 4 5 3 3 3 2 2 3 3 4 4 5 6 4 4 4 4 4 4 3 3 1 1 2 4 4 4 5 5 5 4 3 0 1 2 1 4 4 3 4 4 6 4 4 5
11 11 11 10 10 11 11 12 12 10 10 10 10 9 8 9 9 10 10 10 10 9 8 8 8 8 7 7 6 5 5 4 3 4 3 3 2 2 1 2 2 2 2 2 2 2 3 4 4 4 3 4 5 4 5 4 3 4 4 3 3 3 2 3 3 2 3 4 4 4 4 3 5 5 3 3 4 4 2 3 4 5 4 1 2
9 9 9 9 9 9 9 10 10 9 9 8 6 6 9 9 9 6 3 4 4 6 6 6 5 5 5 6 7 7 5 6 4 4 5 5 7 5 3 2 3 1 2 6 5 3 3 4 4 4 4 3 4 4 5 6 5 4 3 4 4 3 2 1 3 4 4 3 4 5 5 5 5 4 4 3 4 4 3 4 5 5 5 2 6
9 10 10 10 9 9 9 9 8 9 9 9 8 5 4 5 5 6 4 3 6 7 7 5 5 6 6 5 5 6 7 6 6 7 6 6 6 5 4 5 5 4 3 6 6 4 3 4 3 3 3 4 3 3 4 3 3 5 4 3 3 2 2 1 2 3 3 3 4 4 6 5 5 4 4 5 4 3 3 4 5 3 3 5 6
8 8 9 9 10 10 9 9 8 8 8 8 8 8 6 5 5 9 11 8 8 8 8 8 9 9 8 6 5 5 6 6 6 6 6 6 6 5 5 4 5 5 8 7 4 3 2 2 1 1 1 1 1 2 2 2 3 2 4 4 3 2 3 2 3 3 3 3 4 5 5 5 5 5 5 5 5 4 3 4 4 4 5 6 6
10 10 9 8 9 8 8 8 8 9 8 8 8 9 8 8 6 5 9 9 10 10 9 9 10 9 9 8 7 1 4 6 7 6 6 7 6 7 6 6 5 4 7 9 4 2 3 3 1 1 1 1 1 1 2 2 3 3 3 3 5 3 2 4 3 1 3 3 4 5 5 5 5 5 5 5 4 5 5 4 4 5 5 5 6
10 9 9 10 10 10 10 10 10 10 10 11 10 10 10 10 11 9 6 9 11 10 10 10 10 10 9 10 9 7 6 7 9 10 9 9 9 8 8 8 6 6 10 5 4 3 3 3 2 1 1 1 2 2 3 3 4 4 3 3 4 4 4 4 2 3 4 5 4 5 5 5 5 5 4 4 4 6 5 5 4 4 5 5 6
8 9 11 11 11 11 11 11 11 11 10 11 11 11 10 10 10 10 12 9 8 7 8 8 10 11 11 11 11 12 12 11 11 10 10 9 9 10 8 6 12 10 8 5 5 3 4 3 2 1 1 1 2 3 3 3 3 3 4 4 4 4 5 4 2 4 4 5 4 5 5 5 5 5 5 5 4 5 5 5 5 4 5 6 7
5 5 8 9 9 9 9 9 10 10 10 10 11 11 10 9 10 11 11 12 12 11 9 6 7 7 7 8 12 13 13 13 12 11 10 10 11 11 10 6 5 5 6 4 4 3 3 2 2 1 0 1 2 2 3 3 3 3 4 4 4 4 4 4 5 5 5 5 5 5 5 5 5 4 5 5 4 5 5 5 5 5 6 6 6
7 6 7 8 7 6 7 7 7 8 9 9 8 8 8 9 9 8 7 7 9 10 7 6 5 6 8 7 12 14 14 14 14 13 12 10 9 10 7 5 5 5 5 4 4 3 4 4 3 1 1 1 2 2 2 2 3 3 3 4 4 4 4 4 4 4 4 4 4 4 4 4 4 4 4 4 5 6 6 6 6 5 6 6 6
7 7 7 7 7 6 6 6 6 7 6 7 8 9 9 8 8 8 8 8 8 7 7 7 7 6 6 5 6 12 15 15 15 15 14 13 13 9 6 5 6 5 5 4 4 4 5 4 3 3 4 3 4 4 4 4 4 4 5 5 5 4 4 3 4 3 3 3 3 3 3 3 3 4 4 5 5 5 6 5 5 6 6 7 8
6 7 7 7 7 7 7 7 7 9 9 8 7 8 9 8 8 8 9 8 8 9 9 6 5 7 8 3 2 4 8 10 11 10 10 10 8 6 6 5 5 6 5 4 4 4 4 5 5 5 4 4 4 4 4 5 5 5 5 5 6 5 8 7 6 5 4 3 3 2 3 3 4 5 5 6 6 5 5 5 5 6 6 7 5
4 6 9 10 8 7 7 8 8 9 8 8 8 9 9 9 8 8 8 8 8 7 6 6 6 6 5 4 5 4 7 5 5 6 6 6 6 5 5 5 6 5 5 5 4 5 5 5 5 4 4 4 4 4 4 4 5 5 5 5 6 6 6 6 5 5 4 4 4 3 3 4 4 4 4 4 4 5 5 6 6 6 6 6 5
6 6 7 10 7 7 7 6 6 6 6 8 7 7 8 8 8 8 8 8 8 7 6 6 6 4 3 3 3 5 8 6 6 6 6 6 6 5 5 6 6 5 5 5 5 5 4 4 3 3 4 3 4 5 5 5 4 4 5 5 5 5 5 5 6 6 5 6 6 6 6 5 5 4 4 4 5 5 6 6 6 6 5 5 6
5 6 6 6 7 7 6 7 6 6 6 6 6 7 7 7 7 7 7 8 8 7 6 6 5 5 4 6 8 8 8 7 6 6 6 6 5 5 5 5 5 5 4 4 4 4 3 3 3 2 3 3 3 3 4 5 4 4 4 5 5 5 5 5 5 4 5 5 5 5 5 5 5 5 5 5 6 6 5 5 5 5 5 5 6
6 7 6 6 7 7 7 6 6 7 7 7 7 7 8 8 8 8 9 8 8 8 7 6 5 5 8 12 11 12 9 7 7 7 6 5 5 5 4 4 4 4 4 3 3 3 2 2 1 1 2 3 3 3 3 3 4 3 4 4 4 4 5 4 4 4 4 4 5 5 6 6 7 7 7 7 6 5 5 5 5 4 4 5 5
6 6 6 6 6 6 7 7 7 8 8 8 7 7 8 8 8 8 8 8 7 7 7 7 6 5 7 9 10 10 7 6 5 6 5 4 4 4 4 3 3 3 3 3 2 1 1 1 1 2 1 1 1 1 1 2 2 3 4 3 5 5 4 4 3 4 4 4 5 6 6 6 6 6 6 6 6 6 6 5 5 4 5 6 6
7 7 6 7 7 7 6 7 7 7 7 8 8 7 7 7 7 7 8 7 7 6 6 6 6 6 5 6 6 6 5 5 5 5 5 4 4 3 3 3 3 3 3 3 2 1 2 1 1 1 1 1 1 1 1 2 2 2 3 3 4 4 4 4 5 4 4 4 5 5 5 6 6 6 6 6 6 6 5 5 5 5 5 5 5
7 8 8 8 7 8 7 7 8 8 9 8 8 7 7 7 7 7 7 7 7 6 6 6 6 4 4 4 4 5 5 5 5 5 5 4 4 3 2 2 2 2 2 2 1 1 0 0 0 0 1 2 2 2 2 2 2 3 3 4 4 5 5 5 5 5 5 5 5 5 6 6 5 6 6 6 6 6 6 5 5 5 6 5 5
8 8 8 8 8 8 8 8 8 8 8 8 8 8 7 7 7 7 7 7 7 6 5 4 4 4 4 5 5 5 4 5 5 4 4 3 3 2 2 2 1 1 0 1 1 1 1 0 1 1 2 3 3 3 3 2 3 3 3 3 4 5 5 5 5 4 4 4 4 4 5 6 5 6 7 7 5 6 6 6 5 5 5 5 5
8 8 8 8 8 8 8 8 8 8 8 7 7 7 7 7 7 7 6 7 6 5 5 4 4 4 4 4 4 5 5 4 4 4 3 3 2 2 1 1 1 1 2 2 1 1 1 2 2 2 2 2 2 3 4 4 3 4 3 4 4 5 6 5 5 5 5 5 5 4 5 5 6 6 7 7 6 6 6 6 5 5 5 5 5
8 8 7 7 8 8 7 7 8 8 7 7 7 6 6 6 7 7 5 5 5 5 4 4 4 4 5 5 4 4 4 4 4 3 3 2 1 1 1 0 1 2 1 2 2 2 2 2 2 2 1 2 3 3 4 4 4 5 4 4 5 5 7 8 6 5 4 3 4 5 5 5 5 5 5 5 5 5 6 6 5 5 5 5 6
8 9 8 8 8 7 7 7 7 6 7 8 7 5 5 5 5 4 5 5 5 4 4 4 4 4 4 4 4 4 4 4 3 2 2 1 1 0 1 1 2 2 1 2 2 2 2 2 2 2 2 2 3 3 4 4 5 5 5 5 7 11 12 11 6 4 6 5 5 5 6 6 6 6 6 5 5 5 6 6 6 6 5 5 5
8 9 10 10 9 8 7 8 7 7 7 6 5 6 5 5 5 4 4 4 4 4 4 4 4 4 4 4 4 3 3 3 2 2 1 1 1 1 1 2 2 2 2 2 2 2 2 2 2 2 3 3 3 3 3 4 4 5 5 7 11 12 10 11 10 10 6 5 5 5 5 5 5 5 5 4 5 5 6 5 5 6 5 5 5
9 9 7 7 7 6 6 6 5 5 5 5 5 4 5 4 4 4 4 4 4 4 4 3 3 3 3 3 3 2 2 2 2 2 2 2 2 2 2 2 2 2 2 2 2 2 2 3 3 3 3 3 3 4 3 4 4 6 8 12 11 10 11 10 7 7 7 5 4 4 5 5 5 5 5 4 5 5 7 6 6 5 5 5 5
Wind_Direction
189 205 191 206 205 210 213 207 211 203 202 206 211 216 215 215 218 223 214 224 214 218 217 215 214 215 215 216 221 222 223 229 225 226 234 239 240 229 227 219 227 239 232 248 248 241 241 242 245 239 233 228 225 223 215 207 195 206 204 199 216 211 202 210 222 247 270 231 219 208 189 159 186 200 191 193 195 206 204 195 184 180 183 187 187
201 202 199 199 205 208 205 199 197 194 204 201 211 211 214 213 213 193 203 224 203 218 217 219 214 214 211 212 214 221 225 230 228 224 230 236 244 236 222 208 209 222 216 231 240 236 234 240 244 232 205 212 218 217 210 203 204 207 207 201 213 216 201 199 229 234 248 167 247 310 163 182 197 182 195 186 197 193 202 202 199 185 183 175 174
201 191 187 187 200 195 185 193 183 193 196 197 204 205 203 200 176 190 206 209 201 210 214 215 216 209 214 220 217 216 223 230 252 243 241 238 248 253 234 222 217 221 227 237 241 241 240 239 244 239 212 218 225 221 208 210 208 207 214 204 216 221 200 207 208 230 238 237 191 194 200 191 208 196 205 203 192 183 184 200 194 192 185 172 183
168 150 155 187 180 172 187 182 179 183 187 183 187 185 183 180 172 180 189 175 186 207 203 197 182 188 204 206 232 239 216 211 233 218 220 220 234 249 245 227 235 235 236 243 242 236 236 241 243 238 216 221 229 224 225 232 221 221 219 216 216 222 205 199 214 222 219 230 203 202 193 183 226 44 173 168 178 188 206 178 168 182 179 192 189
169 175 173 170 172 174 167 168 171 175 174 170 177 170 168 159 168 169 147 157 156 135 97 109 128 145 178 176 178 187 200 185 203 216 216 206 210 227 237 239 239 242 245 247 249 242 240 234 243 232 209 222 235 223 212 210 216 214 222 221 214 217 183 201 222 229 224 224 218 204 119 193 92 159 175 177 181 196 180 193 198 196 194 206 204
181 165 174 170 174 176 163 162 173 175 168 172 175 170 163 146 135 116 155 152 128 125 151 127 149 161 165 176 177 184 177 184 194 208 211 200 197 216 252 261 261 259 259 257 256 251 247 250 248 231 214 219 235 231 218 227 227 229 233 227 219 197 204 210 209 221 232 244 213 201 159 194 205 220 189 171 160 183 224 278 316 242 191 200 216
173 174 169 175 173 185 174 179 157 166 173 174 170 164 162 143 139 149 159 152 160 161 153 142 151 156 174 159 168 179 174 180 196 216 239 238 211 220 231 251 269 274 277 280 282 278 267 265 265 235 220 223 233 230 220 233 228 240 245 271 277 209 238 241 210 222 228 241 253 215 201 224 203 206 133 141 173 186 189 207 253 225 231 209 218
171 176 167 170 185 182 185 174 165 171 168 160 163 164 151 154 161 161 155 164 176 179 174 167 178 166 168 168 176 164 160 180 213 217 217 213 208 229 227 253 277 292 298 299 300 289 284 283 279 268 256 256 243 251 210 230 216 238 233 193 186 205 232 239 235 238 244 250 235 223 209 192 239 49 77 116 217 264 219 199 221 218 221 219 228
182 180 177 191 196 178 171 169 159 157 158 156 161 168 170 173 171 180 195 204 197 194 177 160 152 157 141 159 165 168 167 193 188 185 185 191 180 193 212 220 229 259 286 295 302 300 302 308 307 301 301 301 297 283 254 226 198 230 236 172 195 215 249 245 249 251 255 242 254 227 192 206 199 162 157 183 201 216 193 192 240 224 192 215 237
183 187 193 197 179 171 171 166 168 165 167 173 176 172 173 178 178 194 208 207 203 194 185 181 187 188 182 174 158 158 174 181 167 182 196 175 178 202 205 207 201 202 230 268 276 258 279 312 322 344 341 333 318 307 295 272 260 251 218 179 204 214 226 240 232 224 228 231 231 209 216 221 201 201 200 216 192 83 158 191 222 204 67 257 266
190 190 197 182 173 171 174 179 173 185 186 179 181 183 194 183 190 201 196 193 188 189 176 179 187 182 180 175 171 178 189 182 173 194 196 187 176 191 218 244 204 201 209 229 261 292 288 6 26 25 351 314 308 275 254 242 245 250 248 211 206 200 212 223 231 209 221 232 226 210 224 225 221 202 220 196 184 204 204 196 207 156 204 221 254
193 196 192 177 177 183 183 177 182 189 181 193 187 190 182 185 196 198 194 192 195 169 180 181 169 166 156 151 168 185 200 222 216 242 234 210 185 185 196 251 245 232 222 221 237 258 296 318 201 164 201 232 234 249 264 279 267 255 249 243 231 228 224 217 232 220 208 225 226 224 210 227 223 197 217 189 215 199 208 186 200 197 199 211 223
193 195 190 186 188 188 182 182 187 188 193 182 186 180 186 192 197 193 199 198 166 177 186 160 171 171 166 171 178 172 193 228 189 216 218 186 168 163 167 211 223 248 253 262 276 278 250 254 273 239 239 250 262 256 255 260 258 259 255 253 249 241 240 237 221 217 200 212 221 231 213 213 224 233 196 190 148 201 193 213 211 207 208 218 226
193 194 188 194 191 187 182 184 191 192 182 185 183 189 193 200 197 197 184 169 181 180 172 176 172 174 166 155 148 155 187 246 225 218 211 104 105 129 124 150 212 333 356 346 301 256 268 292 294 292 286 277 253 251 260 265 275 276 270 259 257 261 254 244 233 206 178 199 200 225 226 178 223 216 195 176 172 208 199 224 192 208 215 224 200
192 192 194 193 187 188 186 186 189 186 186 187 191 197 196 197 197 193 184 183 182 183 179 182 182 159 150 144 139 152 187 204 185 132 107 109 115 120 115 105 86 86 94 137 314 348 215 216 250 278 285 269 269 256 256 256 259 270 271 264 256 255 249 248 247 245 214 200 211 228 237 226 233 240 198 194 210 213 197 207 198 208 181 52 326
195 189 198 196 193 190 185 187 186 185 187 192 197 199 197 197 192 185 183 186 182 147 130 136 145 151 151 143 134 152 192 150 149 162 146 134 129 117 117 123 139 147 123 80 137 202 215 247 255 261 271 273 260 232 238 228 245 261 261 266 269 270 272 211 245 235 204 213 214 216 223 218 224 213 191 189 157 118 96 76 81 101 147 214 245
199 199 202 198 194 188 187 185 187 189 188 193 200 198 195 197 194 169 176 181 173 173 170 151 151 144 143 149 145 157 155 123 142 173 152 142 124 127 132 134 133 134 171 146 154 174 213 216 230 255 272 282 280 254 246 191 234 249 261 274 283 299 289 345 304 292 246 230 234 238 236 236 232 219 203 193 175 149 124 128 205 170 175 229 249
205 200 204 197 191 186 187 186 188 190 189 199 198 197 192 186 186 174 180 171 173 168 150 124 111 140 153 159 162 155 186 358 150 175 147 147 146 145 144 138 154 166 165 102 121 237 267 249 252 267 289 291 283 249 248 194 237 255 265 286 299 296 299 144 224 295 291 240 228 226 228 235 231 218 211 200 181 166 165 213 199 157 216 218 242
202 203 205 190 184 184 185 186 189 190 197 200 193 190 189 185 159 161 169 160 166 151 148 145 146 151 154 154 162 151 170 243 239 252 158 145 135 130 132 133 149 189 55 352 7 15 343 357 295 264 259 271 278 252 243 195 220 235 239 281 285 285 274 161 220 243 258 272 286 286 285 247 236 228 231 213 194 196 213 231 138 187 219 226 233
210 198 172 176 181 182 184 186 189 191 199 194 189 188 165 157 164 165 157 156 152 151 149 153 158 164 160 153 167 165 162 194 206 222 190 144 139 115 115 118 148 353 26 19 352 345 355 330 316 302 291 285 280 272 252 221 209 219 166 219 259 272 309 192 208 210 250 243 261 254 258 288 304 312 286 260 229 221 242 307 313 274 266 274 249
172 178 172 172 179 184 185 188 189 191 189 188 175 168 168 167 157 161 155 149 145 145 151 155 153 161 159 158 154 186 170 176 270 241 350 120 141 132 120 125 126 113 66 45 21 309 312 313 304 298 301 296 288 277 258 246 226 202 205 231 234 261 65 2 309 207 234 255 260 267 276 294 290 288 275 265 273 283 259 259 227 229 243 259 264
174 167 176 182 182 183 187 187 183 178 168 162 171 174 164 157 162 156 153 153 153 154 156 160 159 153 151 138 155 166 190 167 356 319 310 44 134 148 135 155 150 137 128 121 234 267 248 278 291 292 295 291 287 278 267 257 251 221 228 236 253 263 269 169 156 151 200 244 263 285 280 272 267 267 262 264 265 283 307 296 280 238 242 248 243
171 174 174 180 186 185 182 177 174 166 168 169 167 167 159 162 164 160 156 158 158 161 166 164 153 154 152 143 134 114 112 134 176 164 213 145 147 148 166 159 159 143 153 204 220 231 231 242 265 280 288 287 287 284 276 270 266 242 251 254 251 255 230 149 175 192 238 266 280 272 272 265 271 268 268 273 271 274 275 277 291 300 282 261 256
163 170 181 183 178 179 176 172 165 161 164 164 167 162 166 168 164 168 164 160 162 165 172 165 158 160 162 153 155 129 125 130 173 182 181 171 156 144 142 153 158 159 156 183 192 194 220 242 253 275 282 285 293 296 296 286 260 262 275 279 274 255 184 172 178 236 271 298 290 286 283 278 276 283 272 266 262 244 252 252 259 257 258 257 247
169 179 181 178 174 171 163 170 168 162 165 169 172 170 167 168 168 172 164 166 169 171 169 171 172 165 158 163 160 162 160 202 192 216 157 162 127 108 100 104 107 145 155 193 164 193 207 235 251 274 280 296 305 317 333 329 326 330 325 316 305 227 165 193 235 257 293 279 275 279 284 280 260 259 270 267 246 246 241 266 247 248 247 257 252
175 182 175 173 173 163 164 166 168 168 169 177 180 175 169 170 169 165 171 173 174 170 170 174 174 164 169 163 169 176 193 206 191 239 252 121 104 95 95 91 86 90 126 151 178 196 232 264 316 333 345 350 12 12 351 337 349 350 347 353 358 323 188 183 233 229 261 270 269 275 275 284 287 276 276 225 228 255 247 261 259 266 252 261 274
175 173 177 172 165 167 172 175 172 172 172 171 169 165 163 166 166 168 177 175 175 177 170 174 172 172 176 174 167 170 200 211 218 234 243 119 108 82 76 59 59 75 65 61 66 51 52 55 62 47 51 39 46 43 38 16 11 2 3 4 356 337 214 201 224 241 259 265 269 270 271 266 314 22 309 258 260 270 228 252 264 268 251 261 260
182 183 177 171 174 176 180 176 173 173 177 173 170 168 172 172 174 180 184 181 178 180 174 177 180 180 175 167 162 180 207 228 228 184 174 147 123 87 94 93 90 92 79 63 85 91 82 59 52 39 37 32 22 20 16 19 25 6 350 351 347 344 303 249 248 235 253 256 275 286 289 290 296 275 267 250 257 268 238 236 251 271 263 226 290
176 173 171 172 180 180 179 176 179 172 168 169 171 176 176 177 173 163 149 158 175 170 167 163 163 160 156 162 171 192 195 196 208 195 174 165 149 136 124 155 146 143 159 138 91 55 57 48 37 33 43 38 18 5 5 7 350 354 352 339 336 337 333 322 265 264 263 278 280 284 288 290 280 270 260 269 264 259 242 244 263 257 283 233 243
174 178 177 179 176 174 175 172 172 168 168 165 150 113 73 123 155 147 127 102 138 148 148 161 152 138 150 192 174 170 190 202 194 174 167 161 157 151 152 150 158 159 172 141 122 90 65 92 62 67 37 38 16 356 347 353 341 339 330 327 329 322 305 274 257 254 274 275 281 284 283 286 286 277 269 267 277 262 236 231 254 253 253 259 266
181 179 176 185 180 177 170 170 171 167 166 159 150 139 117 60 82 137 139 139 129 120 124 123 140 150 156 184 234 225 175 168 150 123 114 120 133 150 168 177 174 185 139 96 51 85 105 75 48 45 61 72 15 323 323 335 318 315 305 307 298 286 283 278 261 266 269 264 266 264 265 268 272 279 276 276 278 276 257 251 246 242 244 252 263
182 184 180 172 165 172 169 167 164 163 163 160 156 151 141 134 98 82 117 117 111 114 117 129 147 160 176 156 156 216 188 157 140 130 126 119 113 116 120 126 136 145 153 127 95 110 117 121 106 69 100 35 303 298 299 288 283 277 279 301 297 284 268 271 269 255 258 256 257 255 256 256 262 266 267 270 267 268 261 257 248 246 255 254 256
181 175 174 167 168 169 168 170 172 170 167 165 166 161 161 158 150 135 91 98 111 122 129 134 141 150 146 152 159 160 166 151 138 131 128 128 127 131 129 128 132 123 99 85 113 146 170 157 163 172 167 197 231 233 251 248 250 263 254 254 268 274 270 267 288 275 251 250 244 254 254 259 261 265 263 257 256 265 267 262 250 247 250 257 263
187 179 176 175 172 176 178 177 176 177 173 173 171 169 167 163 158 149 139 128 95 81 88 115 134 139 145 148 146 141 136 132 128 127 127 131 134 133 123 106 85 74 94 132 133 159 152 156 159 176 201 206 226 227 243 254 257 245 261 254 253 262 267 268 263 255 254 246 243 248 251 249 249 250 258 256 244 248 259 258 255 246 254 255 262
180 186 176 173 182 181 180 178 177 172 171 173 170 168 161 158 153 155 157 152 149 145 142 110 100 110 123 132 134 131 126 120 114 111 112 121 119 107 92 83 68 35 48 54 88 109 102 86 85 25 67 288 277 259 258 266 261 264 258 266 259 255 258 251 242 245 240 239 237 238 238 242 245 247 252 257 261 260 255 252 246 246 252 261 266
169 166 171 177 174 178 178 178 175 173 172 168 159 147 142 146 151 150 135 130 134 136 128 128 119 98 94 94 117 116 110 103 98 93 89 94 112 104 96 109 96 87 81 58 74 70 84 78 76 35 21 325 281 273 263 257 268 258 260 260 276 266 262 261 265 255 251 247 248 257 263 257 253 252 254 261 255 253 263 260 259 255 255 259 261
168 168 172 176 172 163 161 157 165 161 150 145 146 145 148 145 142 137 137 140 139 132 128 137 127 100 73 45 83 103 99 95 90 86 82 78 75 79 103 116 120 104 85 74 66 64 60 33 46 37 13 7 346 344 346 340 344 345 347 343 329 316 300 292 293 295 297 284 273 264 255 264 260 261 258 261 261 257 253 254 257 261 255 258 267
170 169 170 160 154 155 154 162 155 147 148 150 150 147 146 148 147 144 142 143 141 141 143 148 133 134 132 128 72 105 99 87 77 64 57 56 57 69 85 95 93 93 91 76 74 77 61 47 45 45 24 26 19 5 7 1 1 355 345 341 330 320 317 315 316 315 310 299 287 268 265 261 253 249 245 251 263 267 268 267 261 260 263 264 257
142 146 147 151 154 157 157 155 156 156 155 153 155 150 151 146 143 142 142 142 139 134 127 122 124 120 133 145 118 127 96 70 76 87 75 73 69 73 79 77 80 79 74 70 60 58 59 46 33 33 36 22 27 7 9 2 356 348 336 330 320 318 312 300 298 288 281 276 279 281 269 270 270 266 263 268 270 272 270 269 263 262 264 265 257
135 135 143 143 139 146 148 148 145 146 151 147 145 141 138 143 145 141 136 133 129 126 126 124 118 120 141 118 131 117 103 108 105 104 92 77 72 61 65 70 67 72 72 60 55 54 55 36 39 41 23 20 20 13 8 7 352 339 329 313 305 299 309 333 337 337 340 345 341 338 335 328 315 296 274 254 256 261 266 264 267 266 267 267 269
132 134 138 139 137 134 129 135 138 137 131 120 123 123 124 119 117 120 119 119 121 120 117 113 109 107 96 95 96 103 112 113 107 91 84 85 77 71 62 64 70 65 61 66 59 58 63 55 19 38 22 19 20 17 16 7 353 349 338 331 334 326 327 317 319 326 331 333 326 322 317 318 310 301 283 273 279 278 267 266 262 260 259 261 266
136 135 132 129 130 127 128 119 116 109 111 115 117 121 123 123 125 125 127 128 127 126 120 109 98 90 92 91 88 91 92 93 93 91 87 81 79 71 73 65 62 72 72 68 74 64 42 47 18 36 37 15 31 12 14 4 349 344 320 314 306 305 305 302 311 325 327 326 326 328 334 328 321 314 309 309 300 285 278 270 267 261 256 262 261
117 116 117 120 119 123 124 124 118 116 114 112 111 110 115 120 122 122 119 117 121 122 120 113 102 82 83 85 85 82 81 85 85 87 85 81 79 76 72 69 61 63 69 64 61 102 92 110 26 8 42 3 3 2 356 317 311 315 302 303 298 293 293 307 326 328 335 332 328 321 314 309 305 305 300 293 287 284 279 275 264 257 259 262 265
106 101 97 95 97 94 93 102 102 97 98 100 99 99 103 103 103 108 113 114 114 110 110 106 105 94 86 78 73 73 72 78 82 86 86 85 85 81 70 58 54 55 58 57 34 60 102 90 55 333 340 309 327 340 322 307 293 290 292 297 298 302 310 317 318 319 321 318 313 309 307 302 300 296 292 290 291 286 281 275 274 275 272 272 267
111 114 114 109 104 103 99 92 99 102 103 101 98 98 98 104 108 109 111 115 110 105 101 101 100 93 83 83 74 79 79 87 91 91 87 84 88 84 85 70 68 67 61 22 18 40 68 125 269 270 327 323 336 320 312 308 303 289 280 292 294 299 296 302 303 308 311 307 309 312 308 306 297 292 285 288 296 300 301 296 294 286 283 276 274
117 117 114 115 112 111 109 110 109 111 113 115 116 113 109 106 108 111 113 108 109 109 104 90 91 92 91 95 95 93 90 90 90 93 97 92 99 96 108 101 91 118 145 277 315 353 323 305 345 339 334 325 330 329 319 314 307 302 302 293 287 277 279 275 278 286 286 286 286 290 296 295 291 292 298 304 306 300 292 288 284 282 278 274 266
113 113 115 116 116 116 114 118 117 117 116 114 115 116 116 116 114 111 101 100 105 99 97 105 102 103 102 104 104 104 102 100 100 100 107 109 107 107 93 65 10 302 302 301 321 325 351 348 356 353 332 320 324 325 317 312 305 305 302 298 290 286 281 272 267 257 261 258 261 259 275 287 289 289 292 295 292 293 292 288 286 274 267 260 263
115 110 109 110 111 112 112 111 110 110 106 109 107 94 82 93 91 95 98 95 93 96 97 102 106 113 112 109 105 105 105 104 103 106 103 102 107 94 108 291 275 270 275 287 312 334 343 348 331 326 313 314 319 314 309 304 305 299 297 290 283 270 279 279 269 265 260 275 278 285 282 282 279 280 285 291 292 293 289 285 286 283 276 265 264
117 118 115 109 106 105 110 109 106 106 110 111 100 79 89 90 92 90 93 95 105 110 117 116 113 105 104 110 110 107 113 105 106 104 113 110 128 149 181 253 292 279 282 273 293 312 316 309 310 296 290 292 298 298 299 304 301 300 295 288 283 282 285 294 314 312 316 302 283 275 270 270 273 278 281 284 282 283 282 283 285 283 282 273 266
75 92 97 103 104 104 105 107 107 111 112 108 102 108 106 103 107 107 108 110 111 108 103 103 105 111 114 117 114 119 114 119 120 127 130 148 145 174 191 236 226 255 248 257 284 290 294 288 288 286 290 286 287 287 289 289 290 289 291 282 281 297 316 320 311 304 289 257 267 272 277 277 277 275 274 275 280 284 284 285 284 282 276 268 263
68 71 68 72 76 79 79 87 83 71 74 85 94 100 112 109 112 114 112 110 108 114 111 109 109 110 105 106 107 110 116 130 146 149 153 160 179 176 202 204 236 252 269 262 266 280 283 289 287 288 287 287 286 285 281 278 281 279 276 285 307 319 311 307 300 298 307 317 301 292 284 283 283 284 281 278 274 271 272 277 272 271 266 264 258